HST 1 20580U 90037B 26125.04200163 .00007308 00000+0 23464-3 0 9995 2 20580 28.4764 15.3378 0002034 31.0458 329.0257 15.30282823781957 POLAR 1 23802U 96013A 26124.90432894 .00000074 00000+0 00000+0 0 9997 2 23802 79.8109 227.5549 6427157 210.5653 87.2220 1.29845890144296 SWAS 1 25560U 98071A 26125.00804862 .00003505 00000+0 22562-3 0 9999 2 25560 69.8971 338.8449 0007866 300.6858 59.3530 15.09326966490753 CXO 1 25867U 99040B 26127.06259447 .00000736 00000+0 00000+0 0 9999 2 25867 55.4991 117.8654 7903269 310.4851 359.9490 0.37798190 17161 XMM-NEWTON 1 25989U 99066A 26125.46606464 .00000066 00000+0 00000+0 0 9995 2 25989 64.7084 283.5315 4687262 65.6551 0.1620 0.50129944 22797 TERRA 1 25994U 99068A 26125.28429844 .00000437 00000+0 98074-4 0 9993 2 25994 97.9490 176.5245 0002681 36.8754 25.9201 14.61069166403342 CLUSTER II-FM7 (SAMBA) 1 26410U 00041A 26125.74573274 .00005977 00000+0 00000+0 0 9999 2 26410 149.7335 43.3752 9000062 260.0677 0.6327 0.44858910 20117 CLUSTER II-FM8 (TANGO) 1 26464U 00045B 26125.64298307 .00006195 00000+0 00000+0 0 9995 2 26464 149.9972 44.3576 9005728 260.8928 1.2633 0.44404743 20108 ODIN 1 26702U 01007A 26125.05770956 .00106681 00000+0 10879-2 0 9998 2 26702 97.3940 163.6157 0000383 264.4893 95.6322 15.64749919382634 TIMED 1 26998U 01055B 26124.98669510 .00001127 00000+0 10615-3 0 9990 2 26998 74.0676 321.9980 0001350 198.1575 161.9562 14.95189533324369 CORIOLIS 1 27640U 03001A 26125.00197136 .00000098 00000+0 66534-4 0 9990 2 27640 98.7140 132.5446 0013593 342.1959 17.8740 14.19932772208090 SORCE 1 27651U 03004A 26125.16625724 .00002995 00000+0 22634-3 0 9991 2 27651 39.9890 147.0811 0015972 104.5640 255.6927 15.03478919265429 MOST 1 27843U 03031D 26124.98757694 .00000055 00000+0 45450-4 0 9992 2 27843 98.7059 133.3147 0010261 23.5942 336.5704 14.21313377184576 SCISAT 1 1 27858U 03036A 26124.87092420 .00000709 00000+0 95331-4 0 9999 2 27858 73.9296 257.4005 0007977 323.6668 36.3966 14.81400266225032 SWIFT 1 28485U 04047A 26125.25938158 .00058190 00000+0 56716-3 0 9999 2 28485 20.5511 154.9938 0002789 88.4009 271.6755 15.64448829180123 HINODE (SOLAR-B) 1 29479U 06041A 26125.05698691 .00000693 00000+0 12747-3 0 9993 2 29479 98.0569 141.8434 0018826 67.1907 293.1285 14.68560420 48547 SHIJIAN-6 02A (SJ-6 02A) 1 29505U 06046A 26125.27359846 .00006063 00000+0 31510-3 0 9994 2 29505 97.6390 166.0271 0001478 305.2627 54.8467 15.16455824 65764 SHIJIAN-6 02B (SJ-6 02B) 1 29506U 06046B 26125.29048219 .00002029 00000+0 16251-3 0 9999 2 29506 97.7141 154.6166 0011065 204.0974 155.9734 15.01251859 64305 FGRST (GLAST) 1 33053U 08029A 26124.42002630 .00002908 00000+0 10403-3 0 9994 2 33053 25.5807 148.3190 0008337 167.5869 192.4876 15.23710377989157 SDO 1 36395U 10005A 26124.41912830 -.00000063 00000+0 00000+0 0 9993 2 36395 34.5624 87.0022 0000938 28.9890 155.4084 1.00272943 59624 CRYOSAT 2 1 36508U 10013A 26125.28207876 .00000216 00000+0 52978-4 0 9996 2 36508 92.0304 266.8849 0002644 90.1201 270.0309 14.51909518851855 X-SAT 1 37389U 11015C 26125.25963145 .00000376 00000+0 17725-3 0 9999 2 37389 98.3491 104.3355 0015166 106.8789 253.4056 14.25194321781569 GCOM-W1 (SHIZUKU) 1 38337U 12025A 26125.27233837 .00000571 00000+0 13678-3 0 9995 2 38337 98.2003 66.4847 0001416 94.3670 76.3963 14.57130546742782 NUSTAR 1 38358U 12031A 26125.33335648 .00013071 00000+0 76043-3 0 9999 2 38358 6.0290 355.4840 0008513 201.7556 154.9070 15.08404669 5833 NEOSSAT 1 39089U 13009D 26125.07337082 .00000168 00000+0 72760-4 0 9998 2 39089 98.4170 306.1332 0011379 21.1975 338.9680 14.35811538690555 BRITE-AUSTRIA 1 39091U 13009F 26125.02375293 .00000171 00000+0 72844-4 0 9999 2 39091 98.3986 305.5300 0010444 16.0157 344.1357 14.36524703690856 IRIS 1 39197U 13033A 26125.06528564 .00001283 00000+0 15312-3 0 9999 2 39197 97.9359 324.4740 0025884 99.5883 260.8259 14.85797221693978 HISAKI (SPRINT-A) 1 39253U 13049A 26125.26524606 .00000134 00000+0 96758-4 0 9992 2 39253 29.7194 78.2239 0136585 28.9342 331.8723 13.55539347625592 CASSIOPE 1 39265U 13055A 26125.27259768 .00035411 -37678-6 40944-3 0 9997 2 39265 80.9129 118.6989 0301853 206.2999 152.2644 15.22231294661137 STSAT-3 1 39422U 13066G 26125.22721791 .00002208 00000+0 17064-3 0 9995 2 39422 97.6185 95.8393 0009829 163.5140 196.6406 15.02503111677756 SWARM B 1 39451U 13067A 26125.24916211 .00003961 00000+0 14252-3 0 9996 2 39451 87.7464 355.3579 0002558 98.6220 261.5319 15.28303436676689 SWARM A 1 39452U 13067B 26125.29979239 .00015519 00000+0 27539-3 0 9995 2 39452 87.3327 72.1576 0003601 88.2997 271.8676 15.50086027699607 SWARM C 1 39453U 13067C 26125.29972252 .00015423 00000+0 27368-3 0 9998 2 39453 87.3328 70.7387 0003611 88.7382 271.4292 15.50087601699561 BRITE-CA1 (TORONTO) 1 40020U 14033L 26125.30003745 .00001015 00000+0 15967-3 0 9992 2 40020 97.9676 255.0359 0079762 54.8837 305.9814 14.72617911635909 OCO 2 1 40059U 14035A 26125.16776670 .00000506 00000+0 12236-3 0 9994 2 40059 98.1999 67.1232 0001315 87.6748 272.4602 14.57075499629782 BRITE-PL2 (HEWELIUSZ) 1 40119U 14049B 26125.25548027 .00003029 00000+0 28612-3 0 9997 2 40119 97.9048 236.9414 0012651 249.3281 110.6582 14.94436714635030 MMS 1 1 40482U 15011A 26125.33335648 -.00000567 00000+0 00000+0 0 9994 2 40482 71.4974 349.3978 8356340 166.4351 247.2431 0.28358354 1372 MMS 2 1 40483U 15011B 26125.33335648 -.00000567 00000+0 00000+0 0 9995 2 40483 71.4976 349.4000 8357103 166.4409 247.2295 0.28358371 1371 MMS 3 1 40484U 15011C 26125.33335648 -.00000567 00000+0 00000+0 0 9996 2 40484 71.5004 349.4046 8356328 166.4353 247.2304 0.28358331 1378 MMS 4 1 40485U 15011D 26125.33335648 -.00000567 00000+0 00000+0 0 9997 2 40485 71.4974 349.4001 8355887 166.4429 247.2182 0.28358315 1374 ASTROSAT 1 40930U 15052A 26124.36252964 .00001615 00000+0 11512-3 0 9996 2 40930 5.9964 110.7729 0007556 131.8342 228.2431 14.82430890573313 DAMPE 1 41173U 15078A 26125.28531888 .00001529 00000+0 54119-4 0 9996 2 41173 97.4566 130.5441 0010608 222.9817 137.0595 15.30678772577981 PISAT 1 41784U 16059B 26124.95765183 .00000962 00000+0 17156-3 0 9993 2 41784 97.8184 127.2705 0028663 346.7148 13.3300 14.68906109513390 HXMT (HUIYAN) 1 42758U 17034A 26125.24078625 .00006485 00000+0 31941-3 0 9994 2 42758 43.0152 62.1027 0032807 234.3244 125.4549 15.18091045491135 FLYING LAPTOP 1 42831U 17042G 26125.32037245 .00002828 00000+0 22611-3 0 9998 2 42831 97.4503 282.5611 0017703 270.1503 89.7693 15.00868512480021 ZHANGHENG 1-01 (CSES-1) 1 43194U 18015C 26125.30622733 .00009682 00000+0 44026-3 0 9991 2 43194 97.6842 290.1189 0017555 55.9716 304.3183 15.20816264458122 SALSAT 1 46495U 20068K 26124.96568201 .00008137 00000+0 28981-3 0 9995 2 46495 97.8860 125.4226 0011723 94.6100 265.6479 15.29165250308752 IXPE 1 49954U 21121A 26125.33335648 .00013748 00000+0 76784-3 0 9996 2 49954 0.2309 282.0546 0006714 149.4744 197.1726 15.09861259 5896